QPF
0.01 0.02 0.03 0.02 0.02 0.01 0.01 0.01 0.02 0.03 0.02 0.02 0.03 0.02 0.02 0.01 0.01 0.01 0.02 0.02 0.03 0.06 0.09 0.06 0.06 0.11 0.11 0.08 0.06 0.06 0.10 0.08 0.07 0.09 0.11 0.09 0.09 0.09 0.14 0.19 0.11 0.09 0.10
0.00 0.01 0.02 0.02 0.02 0.01 0.01 0.01 0.02 0.03 0.03 0.02 0.02 0.02 0.02 0.02 0.01 0.01 0.03 0.03 0.05 0.07 0.10 0.09 0.09 0.10 0.10 0.09 0.08 0.11 0.16 0.08 0.08 0.10 0.14 0.13 0.12 0.12 0.16 0.22 0.12 0.07 0.08
0.00 0.01 0.02 0.02 0.02 0.01 0.01 0.02 0.03 0.03 0.04 0.03 0.03 0.03 0.03 0.04 0.04 0.05 0.06 0.09 0.13 0.13 0.12 0.12 0.13 0.12 0.11 0.10 0.10 0.13 0.13 0.10 0.10 0.12 0.13 0.11 0.10 0.10 0.14 0.21 0.12 0.08 0.08
0.00 0.01 0.01 0.01 0.01 0.01 0.01 0.02 0.03 0.03 0.04 0.04 0.04 0.04 0.04 0.05 0.05 0.11 0.17 0.19 0.18 0.15 0.14 0.18 0.16 0.11 0.10 0.08 0.06 0.06 0.08 0.09 0.09 0.09 0.08 0.06 0.06 0.11 0.14 0.15 0.12 0.09 0.10
0.01 0.02 0.01 0.01 0.01 0.02 0.01 0.01 0.02 0.02 0.04 0.07 0.08 0.06 0.05 0.05 0.05 0.07 0.12 0.13 0.10 0.10 0.11 0.13 0.13 0.12 0.10 0.08 0.06 0.07 0.08 0.09 0.07 0.05 0.04 0.05 0.06 0.13 0.16 0.16 0.14 0.09 0.09
0.01 0.01 0.01 0.01 0.01 0.01 0.01 0.01 0.01 0.01 0.02 0.06 0.10 0.08 0.07 0.07 0.06 0.06 0.07 0.08 0.10 0.10 0.09 0.08 0.09 0.11 0.14 0.11 0.08 0.07 0.07 0.08 0.05 0.03 0.04 0.06 0.07 0.11 0.12 0.13 0.13 0.12 0.10
0.00 0.01 0.01 0.01 0.01 0.02 0.02 0.02 0.02 0.02 0.02 0.03 0.06 0.10 0.11 0.11 0.10 0.09 0.11 0.12 0.09 0.09 0.08 0.07 0.06 0.07 0.14 0.13 0.10 0.08 0.07 0.06 0.05 0.04 0.03 0.06 0.07 0.12 0.12 0.13 0.13 0.13 0.11
0.00 0.01 0.02 0.02 0.02 0.02 0.02 0.02 0.02 0.02 0.03 0.04 0.04 0.07 0.09 0.08 0.09 0.09 0.11 0.12 0.09 0.06 0.06 0.05 0.05 0.05 0.10 0.20 0.15 0.10 0.08 0.08 0.07 0.04 0.04 0.06 0.08 0.15 0.14 0.14 0.12 0.11 0.11
0.01 0.01 0.01 0.02 0.02 0.02 0.02 0.03 0.02 0.02 0.03 0.04 0.05 0.05 0.05 0.04 0.04 0.05 0.07 0.08 0.08 0.07 0.07 0.06 0.04 0.04 0.05 0.15 0.17 0.13 0.10 0.12 0.08 0.04 0.04 0.05 0.09 0.19 0.16 0.15 0.12 0.12 0.10
0.01 0.01 0.01 0.02 0.02 0.02 0.03 0.05 0.05 0.04 0.03 0.03 0.04 0.06 0.05 0.04 0.03 0.03 0.03 0.05 0.06 0.10 0.12 0.10 0.06 0.04 0.05 0.10 0.17 0.16 0.13 0.13 0.08 0.04 0.06 0.06 0.07 0.13 0.17 0.18 0.12 0.11 0.09
0.01 0.01 0.02 0.02 0.02 0.02 0.03 0.03 0.04 0.05 0.03 0.02 0.02 0.03 0.03 0.04 0.03 0.02 0.02 0.04 0.05 0.06 0.08 0.08 0.06 0.05 0.05 0.08 0.13 0.13 0.12 0.15 0.09 0.06 0.06 0.08 0.08 0.10 0.14 0.20 0.14 0.10 0.09
0.01 0.01 0.02 0.02 0.02 0.02 0.02 0.03 0.03 0.03 0.02 0.03 0.03 0.01 0.01 0.02 0.04 0.03 0.03 0.06 0.08 0.12 0.15 0.07 0.06 0.05 0.03 0.04 0.07 0.13 0.11 0.15 0.11 0.08 0.08 0.08 0.09 0.10 0.13 0.18 0.16 0.13 0.11
0.02 0.02 0.02 0.01 0.02 0.02 0.02 0.02 0.02 0.02 0.02 0.02 0.02 0.02 0.01 0.01 0.02 0.03 0.03 0.03 0.07 0.21 0.18 0.06 0.05 0.03 0.02 0.02 0.05 0.13 0.09 0.10 0.10 0.08 0.07 0.07 0.08 0.08 0.10 0.11 0.12 0.16 0.17
0.02 0.03 0.02 0.02 0.01 0.02 0.02 0.01 0.01 0.02 0.01 0.01 0.02 0.02 0.02 0.01 0.01 0.02 0.03 0.04 0.03 0.08 0.07 0.04 0.05 0.04 0.02 0.02 0.04 0.05 0.04 0.06 0.07 0.05 0.05 0.06 0.06 0.06 0.08 0.09 0.10 0.12 0.18
0.02 0.03 0.03 0.02 0.02 0.02 0.01 0.01 0.01 0.01 0.01 0.01 0.01 0.01 0.02 0.02 0.02 0.02 0.04 0.06 0.05 0.06 0.03 0.02 0.03 0.02 0.02 0.01 0.02 0.04 0.03 0.03 0.05 0.05 0.04 0.06 0.05 0.04 0.05 0.07 0.09 0.11 0.16
0.03 0.04 0.03 0.03 0.02 0.02 0.02 0.02 0.01 0.01 0.01 0.01 0.00 0.01 0.01 0.02 0.02 0.04 0.06 0.08 0.09 0.09 0.05 0.03 0.02 0.01 0.01 0.02 0.04 0.04 0.04 0.04 0.04 0.04 0.04 0.05 0.06 0.05 0.05 0.05 0.06 0.08 0.11
0.03 0.03 0.04 0.03 0.03 0.02 0.02 0.02 0.01 0.01 0.01 0.01 0.00 0.01 0.01 0.01 0.01 0.02 0.04 0.09 0.11 0.09 0.07 0.05 0.03 0.02 0.02 0.03 0.03 0.03 0.03 0.03 0.03 0.03 0.03 0.04 0.04 0.05 0.04 0.03 0.04 0.05 0.06
0.03 0.03 0.04 0.03 0.03 0.03 0.03 0.03 0.02 0.02 0.01 0.01 0.01 0.01 0.01 0.01 0.02 0.02 0.03 0.06 0.08 0.08 0.07 0.05 0.04 0.03 0.02 0.02 0.03 0.03 0.02 0.02 0.02 0.02 0.03 0.03 0.03 0.03 0.03 0.03 0.03 0.03 0.04
0.03 0.02 0.03 0.04 0.04 0.05 0.06 0.07 0.06 0.04 0.02 0.01 0.01 0.01 0.01 0.01 0.02 0.02 0.02 0.03 0.05 0.07 0.08 0.05 0.04 0.04 0.03 0.03 0.03 0.03 0.03 0.04 0.02 0.02 0.03 0.03 0.02 0.02 0.02 0.03 0.03 0.03 0.03
0.03 0.03 0.03 0.03 0.04 0.04 0.05 0.06 0.08 0.08 0.05 0.03 0.02 0.01 0.01 0.02 0.03 0.03 0.02 0.02 0.03 0.07 0.09 0.08 0.06 0.05 0.04 0.04 0.05 0.06 0.07 0.06 0.04 0.03 0.03 0.03 0.02 0.02 0.02 0.04 0.05 0.06 0.05
0.02 0.02 0.03 0.03 0.05 0.06 0.07 0.06 0.05 0.05 0.05 0.05 0.04 0.03 0.03 0.04 0.04 0.03 0.02 0.04 0.04 0.05 0.06 0.07 0.09 0.07 0.06 0.05 0.05 0.08 0.11 0.11 0.08 0.06 0.03 0.03 0.02 0.02 0.03 0.05 0.07 0.07 0.06
0.02 0.03 0.04 0.05 0.05 0.06 0.06 0.06 0.05 0.04 0.04 0.05 0.05 0.04 0.05 0.06 0.06 0.06 0.06 0.05 0.05 0.03 0.03 0.04 0.06 0.06 0.07 0.07 0.07 0.08 0.09 0.10 0.09 0.08 0.06 0.05 0.05 0.05 0.05 0.07 0.08 0.08 0.06
0.02 0.03 0.04 0.04 0.04 0.04 0.04 0.05 0.05 0.05 0.04 0.04 0.05 0.06 0.07 0.05 0.06 0.06 0.06 0.06 0.04 0.03 0.03 0.03 0.04 0.04 0.06 0.06 0.07 0.09 0.08 0.05 0.04 0.04 0.03 0.04 0.04 0.05 0.05 0.07 0.08 0.06 0.06
0.02 0.02 0.02 0.02 0.03 0.04 0.06 0.07 0.10 0.08 0.05 0.04 0.03 0.04 0.06 0.07 0.07 0.07 0.07 0.07 0.07 0.06 0.04 0.04 0.04 0.05 0.05 0.05 0.06 0.07 0.06 0.04 0.03 0.02 0.02 0.02 0.02 0.03 0.04 0.04 0.06 0.07 0.08
0.02 0.02 0.02 0.02 0.02 0.03 0.05 0.06 0.11 0.16 0.12 0.08 0.05 0.04 0.05 0.09 0.09 0.07 0.04 0.04 0.05 0.07 0.07 0.07 0.06 0.06 0.05 0.04 0.05 0.07 0.07 0.04 0.02 0.01 0.01 0.02 0.02 0.02 0.03 0.03 0.04 0.06 0.08
0.03 0.03 0.03 0.03 0.03 0.03 0.03 0.04 0.06 0.10 0.15 0.11 0.06 0.05 0.06 0.07 0.05 0.03 0.03 0.03 0.04 0.06 0.07 0.08 0.08 0.08 0.07 0.06 0.06 0.07 0.07 0.05 0.02 0.01 0.01 0.01 0.02 0.02 0.02 0.02 0.03 0.04 0.05
MSLP
1010.38 1009.97 1009.72 1009.65 1009.73 1009.88 1010.04 1010.16 1010.21 1010.18 1010.12 1010.07 1010.10 1010.22 1010.45 1010.76 1011.10 1011.42 1011.68 1011.83 1011.89 1011.86 1011.80 1011.73 1011.70 1011.73 1011.81 1011.92 1012.06 1012.18 1012.29 1012.37 1012.43 1012.50 1012.60 1012.74 1012.93 1013.15 1013.41 1013.69 1013.96 1014.23 1014.49
1010.37 1010.01 1009.79 1009.75 1009.85 1010.02 1010.20 1010.33 1010.40 1010.40 1010.37 1010.36 1010.41 1010.56 1010.80 1011.11 1011.44 1011.75 1011.97 1012.10 1012.14 1012.10 1012.03 1011.96 1011.93 1011.95 1012.02 1012.11 1012.21 1012.31 1012.38 1012.43 1012.47 1012.52 1012.61 1012.75 1012.93 1013.16 1013.43 1013.72 1014.01 1014.31 1014.59
1010.25 1009.93 1009.76 1009.76 1009.89 1010.09 1010.31 1010.48 1010.59 1010.64 1010.66 1010.69 1010.78 1010.94 1011.19 1011.48 1011.78 1012.05 1012.24 1012.34 1012.35 1012.31 1012.24 1012.19 1012.16 1012.18 1012.24 1012.31 1012.39 1012.46 1012.50 1012.53 1012.56 1012.61 1012.70 1012.84 1013.03 1013.26 1013.53 1013.82 1014.12 1014.43 1014.73
1010.04 1009.77 1009.65 1009.69 1009.87 1010.12 1010.39 1010.61 1010.78 1010.88 1010.96 1011.03 1011.15 1011.34 1011.57 1011.84 1012.10 1012.32 1012.47 1012.54 1012.54 1012.50 1012.45 1012.41 1012.40 1012.43 1012.49 1012.55 1012.61 1012.66 1012.69 1012.71 1012.75 1012.80 1012.90 1013.05 1013.24 1013.47 1013.73 1014.01 1014.30 1014.59 1014.88
1009.84 1009.61 1009.54 1009.64 1009.86 1010.16 1010.47 1010.74 1010.95 1011.11 1011.23 1011.36 1011.50 1011.69 1011.92 1012.16 1012.38 1012.56 1012.67 1012.72 1012.72 1012.69 1012.66 1012.65 1012.66 1012.71 1012.77 1012.84 1012.89 1012.93 1012.97 1013.00 1013.04 1013.12 1013.23 1013.38 1013.57 1013.78 1014.01 1014.26 1014.51 1014.78 1015.05
1009.74 1009.57 1009.54 1009.67 1009.93 1010.25 1010.58 1010.88 1011.12 1011.32 1011.47 1011.63 1011.80 1012.00 1012.21 1012.43 1012.63 1012.78 1012.87 1012.91 1012.91 1012.90 1012.89 1012.91 1012.95 1013.01 1013.09 1013.16 1013.22 1013.27 1013.32 1013.36 1013.43 1013.53 1013.65 1013.80 1013.98 1014.16 1014.35 1014.54 1014.74 1014.96 1015.19
1009.84 1009.70 1009.71 1009.86 1010.12 1010.44 1010.76 1011.05 1011.30 1011.50 1011.67 1011.85 1012.04 1012.25 1012.47 1012.68 1012.86 1012.99 1013.07 1013.11 1013.12 1013.12 1013.14 1013.18 1013.25 1013.34 1013.43 1013.52 1013.59 1013.65 1013.72 1013.79 1013.88 1013.99 1014.12 1014.27 1014.41 1014.55 1014.69 1014.82 1014.95 1015.11 1015.30
1010.15 1010.05 1010.08 1010.23 1010.47 1010.76 1011.04 1011.28 1011.50 1011.68 1011.85 1012.03 1012.24 1012.47 1012.70 1012.92 1013.09 1013.22 1013.30 1013.34 1013.36 1013.38 1013.41 1013.48 1013.56 1013.67 1013.77 1013.88 1013.96 1014.05 1014.13 1014.22 1014.33 1014.45 1014.58 1014.71 1014.82 1014.91 1014.99 1015.05 1015.12 1015.22 1015.36
1010.62 1010.57 1010.61 1010.76 1010.96 1011.19 1011.39 1011.57 1011.73 1011.87 1012.03 1012.21 1012.44 1012.68 1012.94 1013.17 1013.36 1013.50 1013.57 1013.61 1013.63 1013.65 1013.70 1013.77 1013.87 1013.99 1014.11 1014.23 1014.34 1014.43 1014.53 1014.64 1014.75 1014.88 1014.99 1015.10 1015.17 1015.21 1015.23 1015.23 1015.25 1015.29 1015.40
1011.16 1011.16 1011.24 1011.37 1011.53 1011.68 1011.81 1011.91 1012.00 1012.10 1012.23 1012.42 1012.66 1012.94 1013.22 1013.47 1013.67 1013.81 1013.89 1013.92 1013.93 1013.95 1014.00 1014.08 1014.19 1014.32 1014.45 1014.58 1014.70 1014.81 1014.92 1015.03 1015.13 1015.24 1015.34 1015.41 1015.45 1015.45 1015.42 1015.38 1015.35 1015.36 1015.44
1011.66 1011.72 1011.83 1011.97 1012.09 1012.19 1012.24 1012.27 1012.30 1012.37 1012.49 1012.68 1012.94 1013.24 1013.54 1013.82 1014.03 1014.17 1014.24 1014.26 1014.26 1014.28 1014.32 1014.40 1014.51 1014.66 1014.81 1014.95 1015.08 1015.19 1015.30 1015.39 1015.48 1015.56 1015.63 1015.67 1015.67 1015.65 1015.59 1015.53 1015.48 1015.46 1015.51
1012.01 1012.15 1012.32 1012.47 1012.58 1012.64 1012.65 1012.63 1012.63 1012.67 1012.79 1012.99 1013.27 1013.60 1013.92 1014.21 1014.42 1014.56 1014.61 1014.62 1014.61 1014.62 1014.66 1014.74 1014.87 1015.03 1015.20 1015.35 1015.49 1015.60 1015.69 1015.76 1015.82 1015.86 1015.89 1015.90 1015.89 1015.85 1015.78 1015.71 1015.65 1015.63 1015.65
1012.18 1012.40 1012.63 1012.81 1012.93 1012.99 1012.98 1012.96 1012.94 1012.99 1013.12 1013.34 1013.64 1013.98 1014.31 1014.60 1014.81 1014.94 1014.99 1014.98 1014.97 1014.97 1015.02 1015.12 1015.27 1015.45 1015.64 1015.81 1015.95 1016.05 1016.11 1016.15 1016.17 1016.17 1016.16 1016.15 1016.12 1016.08 1016.02 1015.96 1015.90 1015.86 1015.85
1012.17 1012.47 1012.75 1012.98 1013.14 1013.21 1013.23 1013.22 1013.24 1013.31 1013.46 1013.70 1014.02 1014.36 1014.69 1014.97 1015.17 1015.29 1015.33 1015.33 1015.32 1015.34 1015.41 1015.54 1015.72 1015.92 1016.13 1016.31 1016.45 1016.54 1016.57 1016.57 1016.54 1016.50 1016.46 1016.42 1016.39 1016.36 1016.32 1016.27 1016.21 1016.15 1016.09
1012.05 1012.40 1012.74 1013.01 1013.21 1013.33 1013.39 1013.43 1013.49 1013.60 1013.78 1014.05 1014.36 1014.70 1015.02 1015.28 1015.47 1015.58 1015.63 1015.64 1015.66 1015.71 1015.81 1015.98 1016.19 1016.42 1016.65 1016.84 1016.97 1017.04 1017.04 1017.00 1016.93 1016.85 1016.78 1016.73 1016.69 1016.67 1016.65 1016.61 1016.54 1016.45 1016.34
1011.90 1012.28 1012.63 1012.94 1013.18 1013.35 1013.48 1013.58 1013.70 1013.86 1014.07 1014.34 1014.65 1014.97 1015.26 1015.50 1015.68 1015.79 1015.86 1015.90 1015.96 1016.06 1016.21 1016.42 1016.66 1016.92 1017.16 1017.36 1017.48 1017.52 1017.50 1017.42 1017.31 1017.19 1017.10 1017.04 1017.00 1016.99 1016.98 1016.94 1016.86 1016.73 1016.54
1011.79 1012.16 1012.51 1012.83 1013.11 1013.33 1013.52 1013.70 1013.87 1014.08 1014.31 1014.58 1014.87 1015.16 1015.42 1015.64 1015.82 1015.94 1016.03 1016.12 1016.23 1016.38 1016.58 1016.83 1017.10 1017.38 1017.62 1017.81 1017.92 1017.95 1017.90 1017.79 1017.65 1017.51 1017.40 1017.32 1017.29 1017.28 1017.27 1017.22 1017.12 1016.93 1016.66
1011.75 1012.08 1012.41 1012.73 1013.03 1013.30 1013.55 1013.79 1014.03 1014.27 1014.52 1014.78 1015.04 1015.30 1015.52 1015.72 1015.89 1016.04 1016.17 1016.31 1016.48 1016.68 1016.92 1017.20 1017.48 1017.76 1018.00 1018.18 1018.28 1018.29 1018.23 1018.10 1017.94 1017.79 1017.66 1017.57 1017.53 1017.51 1017.49 1017.43 1017.29 1017.05 1016.70
1011.76 1012.04 1012.34 1012.64 1012.96 1013.27 1013.58 1013.88 1014.16 1014.44 1014.70 1014.95 1015.18 1015.39 1015.59 1015.77 1015.95 1016.12 1016.30 1016.49 1016.71 1016.95 1017.22 1017.51 1017.80 1018.06 1018.29 1018.46 1018.54 1018.55 1018.48 1018.35 1018.19 1018.02 1017.88 1017.77 1017.71 1017.68 1017.64 1017.55 1017.38 1017.10 1016.68
1011.75 1011.99 1012.26 1012.56 1012.89 1013.24 1013.60 1013.95 1014.29 1014.59 1014.86 1015.09 1015.29 1015.47 1015.65 1015.82 1016.00 1016.20 1016.42 1016.66 1016.92 1017.19 1017.47 1017.76 1018.03 1018.28 1018.48 1018.64 1018.72 1018.73 1018.67 1018.56 1018.40 1018.23 1018.08 1017.95 1017.87 1017.80 1017.73 1017.62 1017.42 1017.10 1016.65
1011.67 1011.88 1012.13 1012.43 1012.79 1013.18 1013.59 1014.00 1014.38 1014.71 1014.99 1015.21 1015.39 1015.54 1015.70 1015.87 1016.07 1016.29 1016.55 1016.83 1017.11 1017.40 1017.67 1017.94 1018.18 1018.40 1018.59 1018.74 1018.83 1018.87 1018.84 1018.74 1018.61 1018.44 1018.28 1018.13 1018.01 1017.91 1017.81 1017.67 1017.45 1017.12 1016.66
1011.44 1011.66 1011.92 1012.24 1012.63 1013.07 1013.54 1013.99 1014.41 1014.77 1015.06 1015.27 1015.44 1015.58 1015.73 1015.91 1016.12 1016.37 1016.66 1016.96 1017.26 1017.54 1017.80 1018.04 1018.25 1018.45 1018.62 1018.77 1018.89 1018.96 1018.97 1018.93 1018.82 1018.67 1018.50 1018.33 1018.17 1018.03 1017.89 1017.73 1017.51 1017.19 1016.74
1011.03 1011.29 1011.59 1011.96 1012.39 1012.88 1013.39 1013.89 1014.34 1014.73 1015.02 1015.24 1015.40 1015.54 1015.69 1015.88 1016.11 1016.39 1016.70 1017.02 1017.32 1017.59 1017.83 1018.03 1018.22 1018.39 1018.57 1018.73 1018.89 1019.01 1019.08 1019.09 1019.03 1018.90 1018.73 1018.54 1018.35 1018.18 1018.01 1017.83 1017.61 1017.32 1016.91
1010.48 1010.80 1011.16 1011.57 1012.05 1012.57 1013.12 1013.66 1014.13 1014.53 1014.83 1015.05 1015.22 1015.37 1015.53 1015.73 1015.99 1016.29 1016.62 1016.95 1017.25 1017.51 1017.72 1017.90 1018.06 1018.23 1018.41 1018.60 1018.81 1018.99 1019.13 1019.20 1019.19 1019.10 1018.94 1018.74 1018.53 1018.33 1018.14 1017.96 1017.76 1017.50 1017.15
1009.84 1010.23 1010.65 1011.10 1011.61 1012.17 1012.73 1013.28 1013.76 1014.16 1014.46 1014.68 1014.85 1015.01 1015.19 1015.42 1015.70 1016.03 1016.38 1016.72 1017.02 1017.27 1017.46 1017.63 1017.77 1017.94 1018.13 1018.36 1018.61 1018.86 1019.07 1019.21 1019.26 1019.21 1019.08 1018.88 1018.67 1018.46 1018.27 1018.10 1017.92 1017.72 1017.44
1009.19 1009.65 1010.10 1010.59 1011.11 1011.66 1012.22 1012.75 1013.21 1013.60 1013.89 1014.11 1014.28 1014.45 1014.66 1014.91 1015.22 1015.58 1015.95 1016.31 1016.61 1016.86 1017.06 1017.21 1017.36 1017.52 1017.73 1017.99 1018.29 1018.60 1018.87 1019.07 1019.18 1019.18 1019.08 1018.92 1018.72 1018.52 1018.35 1018.21 1018.08 1017.93 1017.72
Thickness
5792 5793 5791 5788 5786 5784 5783 5782 5781 5780 5778 5777 5776 5775 5774 5773 5772 5772 5771 5770 5769 5768 5767 5766 5764 5763 5762 5762 5761 5760 5759 5758 5758 5757 5756 5755 5754 5752 5751 5750 5749 5747 5747
5797 5793 5790 5787 5785 5782 5781 5779 5778 5778 5777 5775 5774 5773 5772 5771 5770 5770 5769 5768 5767 5766 5765 5764 5762 5761 5760 5760 5759 5758 5757 5757 5756 5755 5755 5754 5752 5751 5750 5749 5748 5746 5746
5797 5793 5790 5786 5783 5781 5779 5777 5776 5775 5775 5774 5772 5771 5770 5769 5768 5767 5766 5766 5765 5764 5763 5762 5761 5760 5759 5758 5757 5756 5756 5755 5754 5754 5753 5752 5751 5750 5749 5748 5746 5745 5744
5796 5792 5788 5785 5782 5780 5778 5776 5774 5773 5772 5771 5770 5769 5768 5766 5765 5764 5764 5763 5762 5761 5761 5759 5758 5757 5757 5756 5755 5755 5754 5753 5753 5753 5752 5750 5750 5749 5748 5747 5745 5744 5743
5793 5790 5787 5784 5780 5778 5777 5775 5773 5771 5770 5769 5768 5767 5765 5764 5763 5761 5761 5760 5760 5759 5758 5757 5756 5755 5755 5754 5753 5753 5752 5752 5751 5751 5750 5749 5748 5748 5747 5745 5744 5742 5741
5790 5787 5784 5782 5779 5777 5775 5773 5771 5770 5768 5767 5766 5764 5763 5762 5760 5759 5758 5758 5757 5756 5756 5755 5754 5753 5753 5752 5752 5751 5750 5750 5749 5749 5748 5747 5747 5746 5745 5744 5743 5741 5740
5788 5785 5782 5780 5777 5775 5773 5771 5769 5768 5766 5765 5764 5763 5761 5759 5758 5757 5756 5755 5754 5754 5754 5753 5752 5752 5751 5750 5750 5749 5749 5748 5747 5746 5746 5745 5745 5745 5744 5743 5741 5740 5738
5786 5783 5780 5778 5775 5773 5771 5770 5768 5766 5765 5763 5762 5760 5759 5757 5756 5754 5753 5753 5752 5752 5751 5751 5750 5750 5749 5748 5748 5747 5747 5746 5745 5744 5744 5744 5743 5743 5742 5742 5740 5738 5737
5783 5780 5778 5775 5773 5771 5769 5767 5766 5764 5763 5761 5760 5758 5756 5755 5753 5752 5751 5750 5750 5749 5748 5748 5748 5748 5747 5746 5746 5745 5745 5744 5743 5742 5742 5742 5742 5741 5740 5739 5738 5737 5735
5780 5778 5776 5773 5771 5769 5767 5765 5764 5762 5760 5759 5757 5755 5754 5752 5751 5750 5749 5748 5748 5747 5746 5746 5746 5745 5745 5744 5743 5743 5742 5741 5740 5740 5740 5741 5740 5740 5739 5737 5736 5735 5733
5776 5775 5773 5771 5769 5767 5765 5763 5761 5759 5757 5756 5754 5752 5750 5749 5748 5748 5747 5746 5745 5745 5744 5744 5743 5743 5742 5741 5741 5741 5740 5739 5738 5738 5738 5739 5739 5738 5737 5735 5734 5732 5731
5772 5772 5771 5769 5767 5764 5762 5760 5759 5756 5754 5753 5751 5749 5748 5746 5745 5745 5744 5744 5743 5743 5742 5741 5740 5740 5739 5738 5738 5738 5738 5737 5736 5736 5736 5736 5736 5735 5735 5733 5731 5730 5729
5773 5770 5769 5767 5765 5762 5760 5758 5756 5754 5752 5750 5748 5746 5745 5743 5743 5742 5741 5740 5740 5740 5739 5738 5737 5737 5736 5735 5735 5735 5736 5735 5734 5734 5734 5734 5733 5733 5732 5730 5729 5727 5726
5771 5769 5767 5766 5763 5760 5758 5756 5754 5752 5750 5748 5746 5744 5742 5741 5740 5740 5739 5737 5737 5736 5735 5735 5735 5734 5733 5733 5733 5733 5732 5732 5731 5731 5731 5731 5730 5729 5729 5728 5726 5725 5724
5769 5767 5765 5764 5762 5759 5756 5753 5751 5749 5748 5746 5744 5742 5741 5739 5738 5737 5736 5735 5734 5734 5733 5732 5732 5732 5731 5730 5730 5730 5729 5729 5729 5728 5728 5727 5727 5727 5726 5725 5724 5723 5722
5769 5767 5765 5762 5760 5757 5753 5752 5750 5748 5745 5743 5742 5740 5739 5737 5736 5734 5734 5733 5732 5731 5730 5729 5729 5729 5728 5727 5727 5727 5727 5726 5725 5725 5724 5724 5724 5723 5723 5722 5722 5720 5719
5769 5766 5763 5761 5758 5755 5752 5750 5748 5746 5744 5742 5740 5738 5737 5735 5734 5732 5731 5730 5729 5728 5727 5726 5726 5725 5725 5724 5724 5724 5723 5723 5722 5721 5721 5720 5720 5720 5720 5719 5718 5717 5716
5767 5764 5762 5760 5756 5753 5750 5747 5746 5744 5741 5739 5738 5736 5735 5733 5732 5730 5729 5728 5727 5725 5724 5723 5722 5721 5720 5720 5720 5720 5720 5719 5718 5718 5717 5717 5716 5716 5717 5717 5716 5715 5714
5764 5761 5758 5757 5754 5751 5748 5745 5743 5741 5739 5737 5735 5734 5733 5731 5729 5728 5727 5725 5724 5722 5721 5721 5719 5718 5716 5716 5716 5716 5716 5716 5715 5715 5714 5714 5713 5713 5713 5713 5713 5712 5711
5762 5759 5756 5754 5751 5749 5745 5741 5738 5737 5736 5734 5733 5732 5731 5729 5727 5726 5724 5723 5721 5719 5718 5717 5716 5715 5714 5713 5714 5713 5712 5713 5712 5711 5711 5711 5710 5710 5710 5709 5709 5708 5708
5759 5756 5753 5750 5747 5745 5741 5738 5734 5733 5732 5732 5731 5730 5729 5727 5725 5723 5722 5720 5719 5717 5715 5714 5713 5711 5710 5710 5708 5706 5708 5709 5708 5708 5707 5706 5706 5706 5706 5706 5706 5705 5705
5754 5752 5750 5748 5745 5743 5741 5738 5734 5732 5731 5730 5729 5727 5726 5725 5723 5721 5719 5718 5717 5715 5713 5711 5710 5708 5707 5706 5703 5700 5698 5699 5703 5705 5703 5703 5702 5702 5702 5703 5702 5702 5703
5749 5747 5747 5745 5743 5741 5738 5735 5732 5728 5726 5725 5724 5724 5723 5722 5721 5720 5718 5716 5714 5713 5711 5709 5708 5705 5702 5702 5701 5697 5692 5690 5694 5697 5698 5698 5698 5698 5698 5699 5699 5700 5700
5746 5746 5744 5742 5740 5738 5736 5733 5730 5726 5723 5723 5722 5721 5720 5719 5718 5717 5715 5713 5712 5711 5709 5708 5706 5704 5701 5698 5697 5696 5694 5692 5689 5688 5691 5693 5693 5693 5694 5695 5696 5696 5696
5744 5742 5740 5738 5735 5734 5733 5730 5727 5724 5722 5721 5720 5718 5717 5716 5715 5714 5712 5710 5709 5708 5707 5705 5704 5702 5700 5698 5695 5693 5690 5688 5687 5684 5683 5686 5687 5689 5690 5691 5692 5692 5693
5740 5738 5736 5733 5731 5730 5728 5725 5723 5721 5719 5717 5715 5714 5713 5712 5711 5710 5709 5707 5706 5705 5704 5703 5701 5699 5698 5696 5694 5691 5688 5686 5684 5681 5680 5680 5680 5683 5686 5687 5688 5688 5689